Theta_e
306 307 307 307 307 307 307 308 309 310 310 311 310 309 311 312 312 312 311 310 309 309 309 309 309 309 309 309 310 310 310 311 311 312 313 315 318 317 319 321 320 320 317 315 316 317 321 326 331 332 332 332 332 333 332 338 348 349 354 359 359 364 365 359 357 356 358 363 357 349 351 357 359 352 347 347 345 344 345 344 344 344 344 346 347 347 347 348
306 307 307 307 307 307 307 307 309 310 310 311 310 310 312 314 315 315 314 313 311 311 310 309 309 309 309 309 310 310 311 311 312 314 315 317 320 319 319 318 317 317 315 315 316 317 325 332 334 331 331 332 332 332 330 335 344 350 356 358 360 366 361 353 353 352 354 358 355 352 353 354 356 353 348 350 348 343 343 343 343 344 345 346 347 348 348 348
306 307 307 307 307 307 307 308 309 310 310 311 310 311 315 316 317 317 316 316 315 314 314 313 311 310 310 309 310 310 311 313 318 324 323 323 324 322 321 317 316 315 314 315 315 316 326 333 333 328 328 331 332 331 328 333 343 348 354 362 365 363 356 351 352 353 354 355 354 353 354 353 353 352 350 350 349 343 342 344 344 345 344 346 348 348 348 348
306 307 307 307 307 307 307 308 310 310 310 310 310 313 316 317 318 318 318 318 318 317 317 318 316 314 312 309 310 310 314 323 329 332 329 326 326 324 324 320 316 315 314 314 314 320 328 332 331 328 328 329 329 329 327 333 344 346 350 363 362 354 358 356 352 355 355 353 354 353 352 352 352 351 350 351 351 345 343 344 344 345 344 346 348 348 348 348
307 307 307 307 307 307 307 308 310 310 310 310 312 316 317 318 319 319 319 319 318 319 319 320 319 317 314 310 310 310 320 334 335 333 329 324 322 321 323 321 318 315 314 314 315 324 331 331 330 330 329 328 327 327 325 329 339 347 348 354 354 352 358 356 353 356 356 354 354 354 353 353 352 351 350 351 353 348 344 345 344 344 344 345 347 348 348 348
308 307 307 307 307 307 308 309 310 310 310 311 314 317 318 319 319 319 319 319 319 319 319 321 320 319 316 311 311 311 320 334 334 330 327 326 323 319 321 321 318 316 314 314 316 326 331 330 331 330 328 326 326 326 326 325 331 351 354 350 351 353 357 355 355 357 355 356 355 355 355 352 352 352 351 350 351 349 344 344 345 345 345 345 346 347 347 347
310 308 307 307 307 307 308 309 310 310 310 312 316 318 318 319 319 319 319 319 319 320 320 321 320 319 316 312 313 314 319 328 331 329 329 329 324 320 320 319 317 315 313 314 320 329 331 330 331 330 327 325 325 323 326 324 327 351 358 353 353 352 354 354 355 357 356 357 356 357 357 354 354 355 354 351 349 349 345 344 345 344 345 345 345 346 346 347
312 310 308 307 308 308 309 310 310 310 311 314 317 318 319 319 319 318 318 319 319 320 319 319 319 317 315 313 314 321 325 329 330 329 329 326 322 320 320 319 317 315 314 316 323 330 330 330 330 328 326 323 325 324 325 327 333 353 357 353 354 353 355 355 355 357 356 358 357 357 357 355 356 356 355 353 350 347 344 344 345 345 345 345 345 345 345 346
314 311 309 307 308 309 309 310 310 310 312 315 318 319 320 319 319 318 318 318 317 318 317 317 318 316 315 314 317 327 330 329 330 329 326 320 318 318 318 317 315 315 314 316 322 328 330 329 328 326 324 322 324 324 325 328 334 348 354 352 353 354 355 355 356 356 356 356 355 359 359 356 356 356 356 354 349 348 345 344 345 344 345 344 345 345 345 345
314 313 310 308 308 309 310 310 310 311 314 316 318 319 319 318 318 317 316 317 316 316 315 315 317 316 315 313 321 332 330 327 329 328 325 320 320 321 319 318 315 314 315 318 323 327 328 326 325 324 322 322 323 322 323 328 335 347 353 354 354 354 353 352 354 353 355 355 354 361 363 355 353 357 359 353 349 349 345 343 344 343 344 344 344 344 344 344
314 314 312 308 308 310 310 310 310 311 314 317 318 318 318 318 317 317 316 316 315 315 314 316 317 315 315 313 320 330 327 326 328 327 327 323 323 323 322 322 318 315 317 321 324 324 324 322 323 321 320 322 320 320 322 328 345 354 353 357 355 353 352 353 355 352 355 358 353 358 362 353 351 359 360 351 348 350 345 343 344 343 344 344 344 344 344 344
313 315 313 309 308 310 310 310 310 312 315 316 317 317 317 318 318 319 318 316 315 314 314 316 316 315 316 316 320 325 323 324 325 325 327 323 323 323 321 322 321 320 321 322 323 321 321 320 321 320 319 321 319 322 322 323 346 356 353 359 358 357 356 353 356 354 356 359 352 353 359 357 356 358 356 351 349 349 345 343 343 343 344 344 344 344 344 344
311 314 314 310 309 310 310 310 311 312 315 316 317 317 318 319 320 319 319 318 316 316 316 316 316 316 319 322 322 322 322 323 323 325 326 323 324 324 322 321 320 320 321 321 321 320 320 320 320 320 319 320 318 321 321 319 338 353 354 356 356 360 359 353 354 354 355 355 350 351 356 361 361 354 351 351 349 349 347 343 342 342 343 344 344 344 344 344
311 313 315 311 309 310 311 310 311 314 316 317 317 318 320 320 320 320 319 318 317 317 317 317 319 320 323 324 322 322 321 321 323 324 324 324 324 323 323 322 320 320 320 320 320 319 320 320 319 320 319 320 320 319 322 321 331 350 351 352 358 358 356 356 355 354 357 353 348 352 356 361 362 351 348 349 347 349 349 342 342 342 343 344 344 344 344 344
310 312 315 313 309 310 311 311 313 316 317 319 319 320 321 321 321 320 319 317 317 317 315 319 324 326 327 327 324 324 322 320 323 324 324 325 324 324 323 322 321 320 320 320 320 320 319 320 319 319 319 319 320 319 323 325 331 341 335 339 357 358 356 359 355 353 359 355 350 353 355 359 359 350 347 348 346 349 351 343 342 342 343 344 343 344 345 344
310 311 314 313 310 310 311 311 314 317 319 321 322 323 323 323 321 320 319 317 317 316 314 320 325 327 330 329 324 323 322 322 324 325 325 325 324 324 323 323 322 321 321 321 320 320 319 319 319 319 319 318 320 321 325 329 335 341 339 344 356 358 357 359 355 351 355 356 351 351 355 358 354 348 347 347 346 349 350 344 343 343 343 345 344 345 345 345
310 310 313 314 311 310 311 312 316 319 321 323 324 325 326 324 321 320 320 320 320 318 317 320 321 326 331 328 323 323 324 324 324 324 324 323 323 322 322 322 322 321 321 320 320 321 319 319 319 318 319 318 320 325 327 328 332 342 353 356 354 355 356 357 357 351 351 354 350 349 354 354 349 347 347 346 347 349 349 346 345 343 343 344 345 345 345 346
310 310 312 314 311 310 311 313 317 320 323 324 324 326 327 326 324 321 322 324 323 322 324 325 322 324 327 324 324 324 324 324 323 323 322 322 323 321 322 322 321 321 320 320 320 320 319 318 318 318 319 319 320 326 327 327 333 343 353 354 350 352 353 356 358 353 352 356 354 352 352 350 347 347 347 346 347 349 350 348 345 343 344 345 345 345 345 346
310 310 311 314 312 310 311 313 317 321 324 324 323 324 324 324 326 325 323 324 324 325 329 328 324 326 325 324 325 323 323 324 322 322 321 322 323 321 321 320 321 321 319 320 320 319 319 317 317 318 317 319 319 323 326 328 338 348 351 353 353 354 353 355 360 355 353 359 360 358 354 349 349 350 349 348 347 348 349 348 344 343 345 346 346 346 346 346
311 310 310 313 313 311 311 313 317 322 323 323 323 324 323 323 325 325 324 324 324 325 327 326 326 327 326 326 325 323 323 323 322 323 322 322 322 321 322 320 320 321 319 319 320 318 318 317 318 318 317 320 318 320 324 325 338 347 348 352 354 355 355 356 359 353 353 360 360 360 359 354 353 354 351 346 347 349 348 346 344 345 346 345 345 345 346 346
313 311 310 312 313 311 311 313 318 321 322 323 324 324 324 324 324 324 324 324 324 325 325 325 326 326 325 326 324 322 322 322 323 323 322 322 322 321 321 321 320 321 319 318 318 319 318 317 318 319 319 320 318 320 321 324 340 348 348 354 353 353 354 355 359 355 354 359 357 358 362 356 357 359 351 347 351 352 349 346 344 344 346 345 345 344 345 345
315 312 310 311 313 311 311 313 318 321 321 322 324 323 324 323 324 325 323 324 324 324 325 325 325 326 324 324 324 322 321 322 323 323 322 322 321 320 320 321 321 321 320 317 318 318 317 317 318 318 318 318 318 320 319 324 339 347 348 353 353 353 355 355 358 359 358 358 355 356 358 356 360 362 355 351 353 353 350 348 345 344 345 345 345 345 345 344
318 314 311 311 313 312 311 314 317 320 321 323 323 322 324 324 324 325 324 325 325 323 324 325 325 326 323 323 324 322 322 321 322 323 322 321 320 320 320 321 321 321 319 318 319 317 316 317 318 318 317 317 318 318 320 325 333 342 348 351 352 354 356 356 356 357 357 355 354 356 357 358 359 359 357 352 350 352 351 348 346 344 345 345 344 345 345 345
319 317 313 311 312 312 312 314 316 318 321 323 321 320 323 323 323 324 325 327 326 325 325 326 327 326 324 323 322 322 322 321 321 323 322 322 321 321 321 321 321 322 321 320 319 317 317 319 319 318 318 318 319 321 327 329 329 334 343 350 354 354 355 357 355 357 359 354 354 355 352 355 357 356 358 354 350 352 350 348 346 343 344 345 344 345 345 346
319 319 315 311 312 313 312 314 316 318 321 323 321 320 321 322 322 323 325 327 328 328 327 325 327 325 323 322 322 322 322 321 322 323 323 322 322 321 322 321 322 323 323 322 320 319 319 320 320 320 322 322 324 327 330 330 329 327 331 348 356 353 355 357 352 354 355 351 352 352 346 350 356 355 355 354 354 354 350 348 347 345 344 344 344 345 345 346
319 319 318 313 311 313 312 314 318 319 322 323 321 321 321 322 323 322 327 332 330 330 325 323 324 323 322 322 322 323 322 323 323 323 324 322 321 321 321 322 322 323 323 322 322 323 322 321 321 323 327 327 327 329 329 329 327 322 327 346 352 351 355 354 350 351 352 350 352 352 348 349 353 353 350 351 355 355 353 351 348 346 347 345 344 346 345 346
319 319 318 315 311 312 312 313 317 320 321 321 322 323 322 323 323 322 331 333 328 327 323 321 323 322 322 322 321 323 323 323 322 323 324 322 321 321 321 324 323 322 323 322 322 323 323 323 323 325 327 328 327 326 327 329 325 323 334 349 351 353 355 351 350 353 353 352 351 351 352 351 351 354 351 349 353 356 355 354 351 348 347 346 345 345 345 346
319 318 319 316 311 312 313 312 314 316 318 320 322 322 321 323 323 323 333 331 324 322 323 321 322 321 322 322 321 323 323 322 322 323 323 323 323 321 321 323 322 323 324 321 319 321 323 324 323 324 325 325 327 326 327 326 322 328 343 352 351 352 354 349 349 354 353 352 351 350 351 351 352 356 353 350 352 354 355 353 351 349 347 347 346 345 346 346
317 318 319 317 312 311 312 312 313 314 317 319 319 320 321 323 324 327 335 334 324 320 324 321 321 322 321 322 321 321 322 322 323 324 323 323 323 322 321 322 322 322 321 320 321 322 323 323 323 324 324 324 327 327 327 325 322 327 338 347 348 350 353 348 348 352 348 350 353 349 348 350 353 357 355 353 352 350 351 350 348 347 347 347 346 345 346 347
316 318 319 317 313 311 313 312 312 314 317 318 317 320 322 324 328 330 334 338 327 319 322 320 321 322 320 321 321 321 322 322 323 324 322 322 323 322 322 321 320 322 324 323 322 322 322 322 322 323 324 324 325 324 323 323 323 322 328 336 337 344 349 344 347 350 340 343 352 348 346 348 349 354 356 354 354 349 347 348 347 346 347 347 346 346 347 347
316 317 318 316 312 311 313 312 314 317 318 318 319 321 323 328 334 332 332 335 326 321 322 321 322 322 321 321 321 321 322 322 322 323 323 323 323 321 321 323 322 324 328 326 322 324 324 322 323 323 323 323 322 324 323 321 322 321 330 335 327 331 340 336 338 339 332 337 347 348 349 345 343 352 356 353 352 349 346 347 348 347 347 347 345 346 348 347
315 316 317 314 312 312 312 312 317 321 321 321 320 322 330 335 334 332 333 330 325 322 322 323 322 322 322 321 322 322 322 322 321 322 324 324 324 322 321 325 325 322 324 326 323 324 325 323 324 322 323 324 322 324 323 324 326 322 331 339 329 328 332 331 334 334 332 337 344 349 351 346 345 352 355 353 351 348 347 346 345 345 346 346 345 346 348 348
316 316 317 313 313 313 312 312 315 320 322 320 321 326 334 335 333 334 333 329 327 324 322 325 324 322 322 321 321 322 322 323 323 323 323 323 324 324 321 324 326 321 322 326 321 320 323 323 322 321 323 323 322 324 321 322 327 322 326 333 330 328 326 327 334 333 333 342 350 352 351 348 350 351 351 354 350 347 346 344 344 345 344 345 343 345 348 348
315 317 316 315 318 315 312 312 312 317 319 317 324 333 332 331 334 336 332 330 329 325 323 325 322 322 323 322 323 323 322 322 323 322 323 324 324 324 325 324 324 322 324 326 321 319 320 320 322 323 323 323 323 324 322 322 325 323 328 329 326 330 328 326 333 332 334 345 349 344 345 348 350 348 350 351 346 346 346 345 346 345 344 344 342 345 348 348
316 317 314 315 323 319 311 312 311 315 317 319 332 338 331 330 333 332 330 329 326 324 324 324 322 323 323 323 324 322 322 322 323 323 324 326 325 325 327 325 323 325 327 326 322 321 320 320 324 324 322 323 322 322 322 323 324 323 327 324 321 329 330 325 329 334 338 347 348 342 343 350 352 351 352 350 349 350 347 346 348 346 346 345 343 345 348 348
316 317 314 314 322 320 312 311 312 313 317 326 335 334 331 332 330 328 330 328 324 323 324 323 324 323 321 323 324 322 323 323 325 327 325 327 328 326 326 325 324 326 328 326 323 322 321 321 325 326 323 323 322 322 322 320 324 325 321 321 324 327 326 321 324 330 332 333 338 342 344 347 349 353 356 356 357 356 351 349 348 347 349 347 345 346 348 349
316 317 319 320 321 321 315 311 313 316 320 329 336 334 333 330 326 327 329 327 325 324 323 321 322 322 319 320 323 323 324 324 325 327 326 327 330 329 326 325 324 324 326 326 322 324 324 322 325 326 325 325 322 323 325 322 325 325 318 320 326 326 327 326 322 325 326 323 329 341 345 344 344 349 358 361 359 359 359 356 350 348 349 349 348 347 348 350
317 316 323 325 322 321 317 312 316 321 323 331 338 338 335 327 325 326 325 324 325 325 323 321 321 323 320 319 322 323 325 324 324 327 327 327 328 328 325 325 326 323 322 322 323 327 327 323 326 328 326 327 325 325 329 327 326 325 322 324 325 320 321 324 321 322 323 325 331 340 344 345 344 349 356 358 357 359 361 361 356 352 350 349 349 348 349 350
317 316 322 326 322 321 319 316 320 322 324 332 337 335 330 326 325 325 324 325 325 324 323 322 322 324 322 320 322 322 324 324 323 327 328 326 325 326 324 324 325 323 322 323 325 328 328 323 323 329 328 327 328 329 328 327 328 328 329 332 330 322 318 320 325 326 323 325 330 335 340 345 348 352 355 356 358 358 358 362 360 352 348 350 350 349 350 350
317 318 323 325 324 322 319 319 322 324 327 333 335 330 325 324 324 324 324 324 324 324 323 322 322 323 324 323 322 322 324 325 324 326 327 326 325 325 324 324 325 324 323 324 325 330 333 324 321 329 332 328 328 329 327 328 330 330 332 333 333 331 326 326 330 326 323 326 329 332 340 347 351 354 357 358 358 356 355 357 357 350 347 349 350 350 351 351
318 323 326 324 324 322 319 321 323 324 329 331 328 325 323 322 323 323 323 323 323 323 323 323 323 323 323 323 323 322 322 323 324 325 326 327 327 327 326 325 325 324 326 328 328 328 330 327 326 331 331 327 328 329 328 331 331 331 334 333 333 335 331 331 334 330 327 329 327 330 339 346 354 356 357 358 357 355 352 352 353 350 348 348 349 350 350 350
318 325 327 323 323 322 321 324 323 322 325 325 323 323 322 322 323 322 322 323 323 323 323 323 323 324 324 323 323 322 322 323 325 325 326 326 328 329 326 323 324 324 327 330 327 326 332 335 334 331 330 328 328 327 327 329 330 331 333 331 335 339 334 332 335 334 332 333 333 337 342 348 356 357 356 356 354 352 351 350 351 350 349 349 349 350 351 350
317 320 324 323 323 323 322 326 328 324 322 321 320 320 320 320 321 321 321 322 322 323 322 322 323 323 324 323 322 322 322 322 324 325 325 326 326 326 325 324 324 324 326 329 327 327 335 336 333 336 343 340 330 329 330 331 333 334 333 333 335 337 337 338 339 338 337 336 338 344 345 350 357 354 350 351 350 350 350 349 350 350 350 351 350 351 352 352
317 317 321 323 324 323 323 326 331 331 326 323 320 320 320 320 320 321 322 323 323 323 322 322 322 321 322 323 322 322 323 322 324 324 324 326 326 324 325 324 324 325 327 331 329 326 330 336 338 339 340 336 331 332 332 331 333 335 336 336 336 337 340 338 338 344 342 336 339 345 346 351 358 354 350 350 350 350 349 349 350 350 350 351 351 351 353 354
318 320 321 322 324 323 324 325 327 328 327 325 322 322 322 322 322 323 324 324 324 323 323 323 322 321 322 322 322 323 324 323 323 323 324 326 325 325 324 323 325 326 325 326 327 329 336 345 349 341 331 328 329 329 331 333 335 338 339 338 337 339 341 338 339 346 345 341 346 350 348 353 358 356 354 352 350 349 348 347 348 348 349 351 352 351 352 355
320 326 326 324 325 324 324 325 324 324 326 325 325 324 322 322 323 323 323 325 325 323 324 323 323 323 323 322 323 324 324 324 322 324 327 325 324 325 324 324 326 324 326 328 326 335 345 347 354 354 340 333 334 335 340 340 337 337 339 339 338 339 341 342 342 344 346 345 346 350 351 353 358 358 353 349 348 348 347 346 347 348 348 349 350 349 349 351
323 329 327 324 326 325 325 325 324 323 324 325 326 326 322 322 322 322 324 324 324 324 324 324 323 323 323 323 323 323 324 327 326 325 326 326 326 325 323 326 327 323 329 332 327 342 353 340 340 350 344 336 342 346 346 341 337 337 337 337 342 344 343 342 337 338 345 342 340 348 353 351 354 357 350 347 348 348 346 346 347 348 347 348 349 348 346 347
323 327 325 324 326 326 326 326 324 323 323 325 327 326 323 322 321 322 324 323 323 325 325 325 324 323 324 323 323 324 326 328 329 328 327 327 327 327 325 327 328 326 328 328 326 342 356 343 334 338 338 339 346 347 344 341 339 340 339 338 343 345 343 341 338 340 345 341 341 351 355 351 353 353 347 346 347 346 346 347 346 347 347 347 348 348 347 346
323 325 326 326 325 324 324 324 324 325 324 325 330 330 325 324 323 322 324 323 324 324 324 326 326 323 325 324 323 327 327 325 327 329 328 327 327 329 329 326 327 327 326 328 328 334 346 349 344 337 333 339 344 343 344 343 338 338 339 340 342 343 343 344 342 343 345 344 346 353 355 353 351 348 345 344 343 344 345 344 344 345 346 346 346 346 346 346
323 325 325 325 324 323 323 323 323 325 324 324 327 329 326 325 326 325 324 324 325 325 323 325 326 325 325 325 325 329 330 328 329 327 326 327 327 328 328 326 327 327 326 330 330 328 335 344 345 339 334 339 346 344 342 343 339 336 338 343 345 342 343 345 345 346 349 350 351 352 354 352 347 344 344 342 340 342 342 341 343 344 344 346 346 345 345 345
322 323 324 324 325 324 322 322 321 322 326 324 325 326 324 324 325 324 325 324 324 325 324 323 325 326 325 325 325 326 327 328 329 325 323 325 325 325 324 324 326 326 328 330 328 329 337 339 341 340 333 336 345 340 335 338 337 334 335 340 343 341 342 345 346 347 349 350 349 348 349 349 347 344 342 340 341 342 341 341 342 342 344 346 345 344 345 345
318 320 321 322 325 324 321 322 321 321 327 327 324 325 324 324 325 325 327 328 324 324 326 324 324 326 328 328 326 325 324 324 325 323 323 324 323 323 322 323 323 323 326 328 327 335 343 340 340 339 333 339 346 337 335 337 333 334 339 340 340 341 343 345 346 347 348 349 350 349 347 347 346 345 345 343 342 342 342 342 342 342 344 345 344 345 345 345
Wind_Speed
15 14 13 13 12 13 12 11 9 7 7 6 6 6 6 7 8 9 9 9 8 7 6 6 7 7 8 8 8 8 6 6 7 8 8 7 8 9 9 9 8 7 6 6 7 6 8 11 8 6 7 8 10 11 8 13 17 10 2 2 1 2 4 4 6 6 3 2 4 6 5 1 4 6 4 4 7 22 21 19 21 15 20 26 26 33 35 32
14 14 13 13 13 13 13 11 9 8 6 6 6 6 6 7 8 9 9 9 8 8 8 8 8 9 10 10 9 9 7 5 6 6 3 3 5 6 6 6 6 7 7 7 7 7 9 10 6 3 9 12 12 11 8 11 17 9 2 2 4 4 5 6 8 7 4 3 4 5 4 2 4 6 5 7 2 17 18 15 22 24 25 27 31 37 35 34
13 13 13 13 13 13 13 12 9 8 7 6 6 6 6 7 8 8 9 9 9 10 10 10 10 10 11 11 10 9 7 5 3 0 2 2 0 2 4 5 5 6 7 7 7 9 9 8 6 8 13 14 15 16 12 11 14 10 6 2 5 5 3 6 10 8 5 6 6 5 4 3 5 7 5 5 7 14 17 18 22 27 31 32 35 39 37 35
12 13 13 14 13 13 12 11 10 8 7 6 6 6 6 7 7 8 9 9 10 11 12 13 12 12 13 11 10 8 6 3 2 4 3 3 3 2 3 5 5 6 8 8 8 9 9 6 6 10 12 12 13 14 11 11 12 10 9 4 5 7 4 7 11 8 7 6 7 6 4 4 7 8 4 5 6 7 14 26 30 33 37 36 36 38 37 33
12 13 13 14 13 12 11 10 9 8 7 6 5 5 6 7 8 8 9 9 10 11 12 13 14 14 13 11 10 7 5 3 2 2 3 6 6 5 4 4 5 7 8 9 9 9 8 6 6 10 8 7 8 6 6 10 13 7 4 5 10 11 4 9 12 8 8 7 6 6 5 4 6 7 2 5 4 3 12 28 36 39 40 39 38 35 33 31
12 13 13 13 13 12 10 9 8 8 7 6 5 5 6 7 8 8 8 9 9 11 13 14 14 14 13 11 9 6 3 1 1 1 3 9 9 6 4 5 7 7 9 10 10 9 8 6 6 8 5 4 6 5 9 12 10 3 1 5 15 13 6 12 14 9 9 7 5 5 4 3 5 6 3 2 1 2 15 29 35 38 38 39 37 33 31 29
13 13 14 14 13 12 10 8 8 7 6 4 4 5 6 7 8 8 9 9 10 12 13 14 14 13 12 10 8 5 3 2 2 2 4 10 9 7 5 6 7 7 10 11 11 10 8 6 7 10 6 4 7 7 12 18 12 4 3 6 13 13 12 17 17 13 11 8 7 5 4 3 4 5 5 2 3 2 19 31 33 35 35 35 33 31 31 28
13 14 14 15 14 12 10 8 7 6 5 3 4 5 6 7 8 9 10 10 11 12 13 14 14 12 10 8 7 6 4 0 2 1 6 9 8 6 5 5 6 8 10 11 12 9 4 6 9 11 5 4 7 7 11 14 6 5 6 9 11 11 13 16 15 13 12 8 7 5 3 3 3 5 6 5 5 2 21 32 31 34 32 31 30 30 31 29
14 15 15 16 14 12 10 8 7 5 4 3 4 5 6 8 9 10 11 11 12 12 13 14 13 13 9 8 7 4 2 3 2 5 7 4 4 2 2 3 5 7 10 11 11 8 5 5 7 8 5 7 6 7 13 10 3 3 9 11 9 8 10 11 9 9 8 5 4 3 2 2 3 4 6 3 1 1 19 33 32 33 31 29 30 30 31 29
15 16 16 16 14 12 10 8 7 5 4 3 4 5 7 8 10 11 12 12 13 12 13 13 13 12 9 8 5 2 2 2 1 6 7 4 5 5 4 2 3 8 10 10 10 8 6 6 9 13 11 10 6 9 13 8 3 5 15 14 11 10 9 7 6 6 7 4 2 4 2 2 2 3 2 3 5 1 15 33 31 32 31 29 30 29 29 27
15 16 16 16 14 12 11 9 7 5 4 4 5 7 8 10 11 12 13 13 13 12 12 12 12 11 9 8 4 2 3 2 2 7 8 3 7 7 6 5 3 6 8 9 9 5 7 11 14 15 9 7 9 12 11 6 10 16 22 16 10 10 7 4 5 5 6 3 1 5 1 2 2 3 4 5 6 2 13 31 30 30 31 28 29 28 28 25
14 15 16 16 14 12 11 9 7 5 5 5 6 8 9 10 11 12 13 13 12 11 11 11 10 8 8 7 5 2 4 2 5 6 7 2 5 6 4 3 1 3 4 6 7 7 11 12 13 11 6 6 7 6 9 7 10 21 20 11 4 5 4 2 2 5 5 1 4 4 2 3 3 5 8 7 5 2 11 29 28 28 30 27 28 26 25 22
14 14 15 15 13 12 11 9 7 5 5 6 7 8 10 10 11 11 11 11 11 10 10 9 8 7 7 6 3 2 2 1 4 6 6 2 1 3 4 2 1 3 6 10 10 11 10 8 10 11 8 6 3 4 12 12 8 17 9 6 4 1 1 3 1 5 5 3 8 6 1 5 6 9 8 2 4 1 9 28 28 26 28 27 27 24 22 20
14 13 14 15 13 11 10 8 6 5 5 6 7 9 10 11 10 10 10 10 9 9 8 7 6 6 7 5 1 1 1 2 5 6 6 5 4 2 0 1 2 3 7 10 11 10 8 7 10 10 7 4 5 8 11 8 6 10 3 3 3 1 1 4 0 5 4 5 10 7 1 6 5 7 9 5 5 4 7 27 25 22 26 27 27 23 21 22
14 14 14 14 13 11 9 7 6 5 5 6 8 9 11 11 10 8 8 7 7 7 6 5 6 7 9 6 2 2 4 5 6 3 3 6 5 5 5 4 3 1 4 7 8 7 6 8 8 7 8 7 7 7 5 4 2 5 4 1 2 2 2 5 2 4 3 5 10 5 1 4 3 2 2 8 7 10 5 23 22 19 25 26 26 22 23 23
15 14 14 14 13 11 8 6 5 4 4 7 9 10 12 11 7 6 6 5 6 6 4 5 6 7 8 4 1 2 4 4 3 1 1 3 4 6 6 5 5 4 5 5 5 5 4 6 6 6 8 7 3 1 3 5 4 2 3 2 2 2 2 2 3 5 4 4 6 5 2 2 1 5 8 12 7 12 5 16 14 14 24 26 24 23 25 24
15 14 14 14 13 10 8 5 4 3 5 9 11 10 10 9 5 4 5 7 8 6 6 7 9 10 6 2 0 1 5 2 2 4 1 1 2 4 4 6 6 7 8 7 5 5 5 4 4 5 5 3 1 4 4 3 3 3 2 3 3 2 3 2 3 4 3 4 2 4 1 2 2 9 14 13 6 8 4 8 2 7 23 27 25 26 26 25
17 15 14 14 13 10 7 5 3 2 6 11 13 12 9 7 5 3 4 10 11 9 9 7 7 7 3 4 4 2 8 4 2 3 3 3 5 4 5 7 6 7 9 8 8 8 7 5 2 1 3 2 1 4 3 3 4 3 2 3 2 2 1 3 3 2 2 4 2 1 2 1 5 10 12 9 1 4 7 7 3 6 17 21 23 25 25 25
19 16 14 13 12 10 7 5 3 1 6 11 13 12 11 12 6 1 7 16 15 8 5 5 5 4 7 13 12 4 7 2 1 2 5 6 5 5 5 6 8 8 5 3 4 8 7 2 1 1 3 4 4 5 6 5 4 7 5 4 4 2 1 2 2 1 4 5 4 3 3 4 7 8 9 4 1 2 9 8 6 9 10 13 15 15 15 23
20 18 15 13 12 10 6 5 2 1 6 11 13 13 13 15 8 3 15 22 16 9 10 12 14 16 17 18 10 6 7 5 4 3 4 7 5 5 6 6 8 8 3 4 2 6 7 2 3 4 6 7 7 8 9 5 2 6 5 4 5 4 2 1 1 2 3 4 3 3 3 3 3 4 6 3 4 6 9 6 12 12 12 14 16 14 8 13
22 19 16 14 12 9 5 4 2 1 5 10 13 12 11 12 6 7 20 23 16 12 15 16 17 20 19 16 10 5 5 7 8 5 4 8 6 4 6 6 4 4 6 6 2 2 5 4 7 9 11 11 9 9 9 6 4 6 5 6 4 2 2 1 2 2 2 3 1 2 4 3 4 5 3 1 3 4 3 7 12 13 17 16 17 22 14 8
23 20 17 14 11 9 4 2 2 2 4 8 10 10 8 9 8 10 16 15 15 13 14 16 16 19 18 16 13 5 3 5 8 8 6 9 9 5 5 5 3 3 4 2 1 0 2 4 10 13 12 10 10 9 7 8 8 6 3 6 4 3 2 1 1 2 4 2 2 0 4 1 4 4 2 1 0 2 3 5 10 15 21 20 16 19 18 11
24 21 19 15 11 8 3 2 3 4 2 6 11 13 9 6 8 13 13 9 14 16 15 16 17 19 17 14 10 4 5 4 6 10 10 10 10 7 5 5 3 4 3 2 4 3 2 7 14 15 10 7 9 10 7 7 6 6 6 5 3 5 4 1 1 1 3 1 3 4 3 2 4 3 3 5 5 5 6 6 10 16 20 22 17 14 19 20
24 22 20 16 11 7 2 3 5 6 2 6 13 15 11 8 9 14 14 6 8 12 12 13 15 18 16 11 9 7 6 6 5 13 13 11 9 5 4 4 4 5 5 5 7 7 6 11 14 11 9 9 9 9 4 4 0 3 8 6 5 8 5 2 4 3 3 4 3 6 3 3 3 3 4 5 5 5 8 8 10 15 19 20 16 13 19 23
24 23 20 17 12 7 3 4 7 8 4 5 10 11 11 11 12 14 11 3 4 7 6 8 11 12 9 7 8 7 5 7 6 12 13 10 8 4 2 3 3 4 5 4 5 7 9 14 12 6 4 4 2 3 1 4 2 2 4 8 11 11 6 8 8 5 4 2 2 5 3 3 4 6 7 5 4 5 8 10 12 16 19 20 18 15 18 21
24 24 21 18 14 7 3 4 6 8 5 4 7 6 6 7 9 11 7 3 3 5 2 4 6 6 5 6 7 4 2 4 7 12 12 8 6 4 2 2 2 3 6 5 2 3 4 8 5 3 3 5 4 2 2 2 5 2 4 6 12 11 10 12 11 5 3 2 4 4 3 2 3 5 9 7 6 7 6 9 13 17 20 22 22 19 18 23
23 24 22 19 16 9 5 5 7 6 5 7 6 6 7 6 7 8 3 3 3 3 1 4 5 4 5 6 7 4 2 3 7 11 13 7 4 4 2 3 2 3 5 3 2 2 2 4 5 3 5 6 4 2 4 2 6 2 2 10 15 13 12 13 10 4 3 3 2 1 2 1 2 5 8 9 9 8 7 7 10 16 21 23 24 20 20 29
23 24 23 19 16 12 7 6 7 6 6 8 7 7 8 6 6 4 2 2 1 2 2 4 4 3 6 7 9 9 5 7 6 7 13 9 6 4 3 4 3 5 6 3 2 5 2 2 4 3 4 2 1 4 5 2 4 3 7 13 14 14 14 12 8 4 3 4 2 3 2 1 3 4 2 8 9 9 10 10 10 15 21 23 24 20 22 33
24 24 24 20 16 13 9 6 8 7 7 9 9 9 7 4 4 2 4 2 2 3 3 4 4 5 9 7 10 13 8 8 6 6 11 11 9 7 3 6 5 4 6 1 2 7 4 3 4 1 3 2 4 6 5 1 0 4 8 10 8 8 9 8 6 4 3 3 2 7 6 2 3 3 2 5 7 10 12 11 11 17 23 24 24 20 24 33
24 24 24 21 17 13 9 7 7 8 7 8 8 9 7 4 2 4 3 0 2 3 2 4 3 7 10 4 4 9 6 9 9 7 10 9 9 9 6 5 3 1 4 2 2 7 8 8 6 1 4 5 4 4 4 3 2 1 3 5 5 4 5 4 2 4 3 1 4 9 10 5 2 3 4 5 7 11 11 9 10 16 21 24 24 20 23 32
24 24 23 20 16 13 9 5 5 7 6 6 6 7 5 3 3 5 1 3 2 2 2 2 4 4 8 6 3 5 3 6 8 7 7 5 4 5 3 2 1 3 4 4 4 6 7 6 4 4 6 4 2 2 3 3 4 4 3 2 2 1 2 3 2 2 2 4 5 6 9 4 1 3 5 7 8 8 9 10 10 14 20 24 26 22 22 30
23 22 22 19 15 12 8 3 4 4 2 3 6 5 1 3 3 1 2 3 2 3 3 3 5 4 6 8 5 6 3 3 6 7 6 3 2 3 3 3 2 3 3 3 3 4 5 5 4 4 6 4 4 3 5 6 6 5 3 3 3 2 2 1 2 2 3 5 4 4 7 2 4 5 6 9 10 7 9 13 15 18 23 26 28 25 22 27
24 21 20 16 11 9 7 4 6 5 1 3 4 2 4 4 0 4 2 3 2 4 3 4 6 6 6 7 6 7 5 3 6 7 5 3 2 3 3 5 5 3 2 4 1 3 5 5 1 2 2 2 5 3 1 3 3 3 1 2 2 2 2 1 3 2 2 4 4 4 7 2 4 4 4 7 11 14 15 17 20 24 27 29 31 29 23 25
23 21 19 11 5 7 6 5 8 8 4 4 1 3 4 1 3 3 2 4 4 3 1 2 5 5 4 4 4 5 4 3 5 6 4 3 1 3 3 4 6 5 2 0 1 2 3 4 3 3 2 2 3 4 5 3 1 1 3 5 3 3 4 2 3 2 2 3 3 2 2 3 2 3 4 2 2 7 12 17 20 22 27 31 33 30 25 25
23 19 17 9 3 4 3 5 8 8 5 3 2 4 2 3 3 2 3 4 3 3 4 3 1 1 3 3 3 4 3 2 3 4 3 3 2 2 2 2 4 5 3 2 1 1 3 2 4 3 2 6 3 5 5 5 1 3 1 4 1 4 5 3 4 4 3 2 0 0 2 3 3 2 3 5 9 7 2 11 17 19 22 27 29 27 25 27
22 16 12 7 3 2 2 3 7 7 5 2 4 2 3 4 3 3 2 2 4 6 5 6 4 2 4 4 3 1 2 1 1 3 1 1 1 1 1 3 1 2 4 4 1 1 3 3 6 6 5 1 2 5 2 5 0 2 2 0 4 4 6 3 3 1 4 2 2 2 2 3 2 2 4 5 7 8 7 2 12 18 20 23 27 27 26 27
21 14 9 6 2 2 4 4 8 7 4 5 4 2 4 3 3 2 4 7 10 10 3 3 2 1 3 4 3 2 2 2 2 2 1 1 1 1 1 1 2 1 3 3 1 1 3 2 5 6 6 7 10 8 6 8 6 2 2 4 4 0 3 3 1 2 3 1 3 2 3 2 0 1 4 6 6 5 6 5 4 14 18 21 25 28 25 26
22 14 9 5 1 5 6 6 8 6 4 5 1 3 2 3 4 5 10 11 11 10 2 1 2 1 2 2 3 3 0 2 1 2 1 1 1 2 1 0 3 5 2 3 3 0 4 1 5 5 5 6 12 12 6 9 9 6 0 3 2 1 2 1 1 1 1 1 3 3 1 2 1 1 4 6 5 5 5 5 2 6 14 19 23 24 21 21
20 13 5 2 3 6 7 6 7 5 5 4 1 3 2 4 9 15 17 13 9 9 5 2 1 1 2 0 2 4 1 2 2 3 2 1 1 1 1 1 4 8 9 10 4 1 3 3 4 5 6 4 6 7 3 6 7 5 5 5 2 1 2 2 1 2 1 2 3 2 2 1 2 2 4 5 5 5 5 5 3 2 7 16 22 23 20 19
16 10 2 1 2 5 6 7 5 5 3 1 3 3 4 5 11 20 22 16 9 6 3 2 1 2 3 2 2 3 1 1 3 3 2 1 1 1 1 2 2 5 12 13 5 1 3 4 2 6 6 4 2 2 1 2 3 4 6 5 4 3 2 1 1 1 2 1 1 1 1 3 4 2 3 5 5 5 5 4 5 7 6 10 17 22 22 19
11 6 2 2 4 4 6 6 3 2 2 2 3 3 5 6 10 18 23 22 12 5 4 3 2 2 3 2 3 2 1 2 1 3 1 1 3 1 1 2 4 3 7 8 5 2 1 2 1 3 4 3 2 3 1 2 3 4 3 1 1 1 2 2 3 3 1 1 2 2 1 4 4 1 3 3 3 4 5 5 6 9 8 6 9 14 17 17
10 4 2 8 10 8 5 4 2 3 3 3 4 5 8 8 9 14 19 20 13 5 3 3 3 3 3 3 2 1 1 2 2 2 1 4 4 2 4 6 8 10 7 3 1 1 1 3 3 2 2 3 5 2 2 5 6 6 4 1 1 1 4 4 1 3 1 2 3 0 1 3 5 2 1 1 2 4 7 8 8 9 7 5 5 8 12 14
13 8 3 8 11 12 7 1 3 2 2 6 8 10 12 9 8 11 13 13 10 4 2 1 2 2 2 3 2 1 2 1 0 1 2 2 2 4 8 8 9 10 7 2 1 1 2 3 3 2 4 5 6 4 4 5 6 5 3 2 1 1 1 4 4 2 1 2 2 2 2 3 4 3 2 3 5 6 8 10 10 9 7 6 6 6 7 9
17 13 6 6 9 14 7 1 2 2 4 6 7 9 12 11 9 11 10 10 8 2 0 2 2 2 4 3 2 1 1 1 1 1 2 3 3 8 11 12 10 5 3 3 3 1 1 2 3 3 4 6 7 6 5 4 4 2 1 3 1 2 3 1 1 2 2 1 0 3 0 4 4 4 5 4 5 7 10 13 13 11 10 9 7 6 5 5
14 10 6 5 5 14 13 7 4 3 3 5 6 7 9 9 11 13 12 11 11 5 2 3 3 1 3 2 0 2 2 3 1 2 1 0 1 4 5 9 10 6 4 8 9 6 3 2 3 4 1 1 2 3 3 3 3 2 2 3 2 2 3 2 1 3 1 2 1 4 3 5 5 5 4 3 4 6 10 14 15 14 13 11 10 7 5 4
7 3 5 11 7 8 13 11 6 4 3 5 6 6 5 5 9 16 15 13 15 11 5 3 2 3 3 3 4 3 2 3 2 1 3 3 3 2 8 13 12 9 8 10 10 7 4 2 3 5 5 4 5 6 5 2 0 2 3 4 3 3 3 1 2 2 2 2 1 3 5 3 5 5 3 4 5 5 7 11 13 15 15 13 12 10 6 3
3 1 3 7 7 5 5 8 9 7 7 7 4 5 7 6 6 10 11 10 11 6 3 1 0 2 3 2 3 3 3 4 2 1 3 2 3 2 11 16 14 12 11 10 8 6 4 2 2 5 5 6 7 7 5 3 3 3 3 4 4 5 4 3 1 2 3 4 1 5 5 3 5 4 3 4 5 4 5 9 11 13 15 14 13 13 10 6
1 4 7 5 3 3 5 9 12 11 11 9 4 5 9 9 7 7 7 9 9 2 2 1 2 1 3 3 2 2 2 4 3 1 1 1 2 2 3 5 7 12 11 7 7 6 5 1 4 4 3 6 6 6 5 5 3 3 3 4 5 5 4 1 3 4 3 4 4 6 6 5 4 2 3 4 6 6 7 10 12 13 14 14 14 15 14 10
3 5 8 7 4 4 7 12 14 11 8 7 5 4 6 8 9 8 5 5 7 4 2 1 3 5 6 4 3 3 2 1 1 1 0 0 1 1 1 2 1 7 8 3 1 3 5 1 5 4 1 3 5 6 5 5 3 3 4 6 6 5 5 3 4 3 3 4 2 3 6 5 2 2 2 5 9 10 11 13 14 13 14 14 14 14 13 10
3 3 7 10 8 8 9 11 11 8 6 5 4 5 6 7 8 9 7 4 3 4 2 4 6 7 7 3 2 2 5 5 4 3 2 1 3 2 1 0 1 1 2 3 2 2 3 2 4 4 2 4 5 5 6 6 5 5 5 5 5 5 3 3 3 2 3 1 2 2 4 3 2 2 5 9 12 13 14 13 12 12 12 14 15 14 13 12
2 2 6 8 6 6 6 7 7 5 4 3 3 4 7 7 9 13 11 10 7 4 3 6 8 6 4 3 4 5 6 9 8 7 9 9 5 3 1 2 2 1 3 2 1 1 3 2 1 4 3 4 5 5 7 6 4 4 6 6 5 3 1 1 2 1 2 1 2 1 3 4 3 1 5 10 11 11 11 9 9 10 10 12 14 14 13 13
7 6 6 4 3 4 4 5 5 4 3 3 5 9 10 11 14 14 10 12 11 3 3 7 5 3 3 4 7 5 7 12 8 6 9 7 6 7 4 1 1 2 2 2 2 1 4 4 2 3 3 4 6 6 5 1 3 3 5 4 2 2 5 4 2 2 1 2 1 2 4 4 2 1 4 6 6 7 7 6 8 10 10 11 12 13 12 12
Wind_Direction
359 360 0 360 360 356 353 351 352 359 5 10 14 23 31 32 31 26 22 17 13 6 0 355 341 327 318 314 315 316 313 295 281 276 263 237 220 218 204 194 200 213 224 215 198 200 200 196 184 179 225 247 253 252 228 203 193 186 166 105 174 188 192 192 177 176 156 181 240 251 265 267 298 323 355 13 150 164 163 151 147 144 140 146 155 156 155 157
2 1 360 359 357 352 350 348 350 356 3 11 14 25 32 33 29 21 18 14 11 8 2 358 345 332 328 328 330 332 329 310 290 284 269 222 219 235 238 223 212 215 221 209 197 204 208 205 203 252 266 259 252 243 230 197 187 179 115 154 214 207 195 178 165 164 150 166 206 221 241 258 279 316 343 355 78 152 147 135 132 128 132 138 149 155 156 158
4 2 360 358 355 351 348 345 348 354 1 9 14 28 36 33 26 17 11 7 7 5 4 3 352 341 337 336 337 342 339 318 306 6 103 86 101 260 262 249 231 225 227 213 207 212 215 215 224 276 276 259 249 242 233 196 186 183 160 189 237 203 170 170 163 157 161 164 170 193 227 256 276 305 333 17 90 129 135 140 136 132 137 139 148 156 157 159
6 4 1 358 355 352 347 344 346 352 359 5 16 30 32 28 22 14 6 0 1 4 9 5 358 352 344 340 343 351 356 358 81 102 87 30 355 312 269 248 235 230 227 215 212 208 211 222 244 277 276 257 251 244 228 196 188 184 179 205 212 168 133 180 172 150 155 163 169 173 190 245 279 289 323 44 89 129 144 149 148 144 145 145 149 157 159 162
6 4 2 359 356 354 348 344 343 347 355 3 20 29 25 22 15 11 3 357 356 1 5 360 358 356 348 343 345 351 16 48 106 80 24 0 344 319 294 261 244 232 224 212 206 200 208 228 260 281 276 254 266 264 248 216 195 184 190 169 156 153 144 181 172 154 155 161 168 154 165 215 272 276 343 59 98 161 159 153 151 149 151 151 152 157 161 165
5 3 2 1 360 358 352 345 343 344 351 3 22 22 18 15 8 4 357 351 348 350 353 351 353 356 352 345 345 354 22 66 244 295 347 345 334 313 298 262 247 227 216 206 196 191 206 228 262 278 274 262 287 269 270 267 232 195 31 134 149 155 154 169 170 164 155 153 161 147 174 210 263 273 20 78 178 134 160 155 150 150 153 156 155 156 161 168
2 1 2 4 4 2 355 348 343 342 349 3 15 13 12 6 360 354 348 344 340 342 344 345 350 352 351 345 347 355 331 280 219 212 312 321 311 298 293 255 241 220 207 198 188 184 206 244 276 278 278 284 285 262 282 293 271 190 136 155 156 160 158 166 172 170 162 154 165 164 177 183 235 265 360 337 306 58 158 155 151 152 153 157 159 161 166 176
360 1 3 5 6 4 357 350 343 340 343 350 357 360 0 354 348 343 341 338 334 336 337 342 347 346 349 346 346 341 320 346 151 321 324 311 295 289 283 249 229 214 201 189 185 185 230 278 281 281 273 269 284 288 308 309 276 142 148 169 158 156 154 163 168 170 168 148 164 171 161 182 218 262 310 312 343 51 160 156 152 153 154 159 163 168 174 183
358 360 3 5 5 2 357 351 342 336 331 329 339 344 345 342 337 333 330 327 326 327 330 337 341 339 345 345 345 345 3 77 67 356 348 335 320 305 249 243 216 201 191 185 190 197 251 275 279 291 285 285 310 326 328 335 317 128 147 153 135 122 124 142 150 156 158 122 158 153 83 234 249 259 291 308 354 44 160 156 154 155 157 163 168 174 180 186
357 359 0 2 2 359 355 351 341 331 325 321 327 330 331 331 328 323 318 316 316 319 326 333 336 336 340 344 350 11 17 58 49 353 359 52 63 58 66 51 182 184 178 179 190 200 245 285 302 305 299 297 344 344 329 1 42 102 112 105 94 104 104 126 133 135 142 86 105 135 86 287 281 240 323 80 172 198 157 157 156 159 161 166 173 179 183 184
356 357 357 359 359 355 352 348 340 329 323 318 322 328 329 329 327 320 315 312 310 315 324 328 332 333 338 337 316 325 15 24 313 336 343 60 86 61 50 46 108 170 177 190 204 224 291 308 312 306 299 309 343 331 323 47 102 118 109 90 80 101 88 94 129 143 144 66 105 143 114 319 338 222 117 94 163 141 155 161 160 163 166 171 178 182 183 181
354 354 354 356 356 352 349 346 339 329 323 321 323 328 330 330 329 326 322 316 313 318 323 327 333 340 341 320 290 339 39 10 314 322 332 42 98 64 48 33 63 186 224 250 256 299 307 309 324 320 310 322 339 331 316 357 114 129 115 103 103 100 73 19 121 161 156 141 179 136 3 266 260 205 146 107 147 154 159 162 166 169 169 174 179 180 179 176
352 352 352 354 355 350 346 342 337 329 322 324 326 329 332 334 334 334 329 322 320 320 323 329 331 337 336 313 292 33 74 352 296 295 309 306 107 43 47 21 281 228 268 284 289 305 304 310 331 321 317 329 329 299 303 314 134 134 106 117 155 84 2 333 65 152 142 151 165 137 329 243 243 229 209 142 127 206 174 166 172 175 172 176 175 174 172 167
352 350 350 353 353 348 344 338 332 329 326 329 330 333 335 334 335 336 329 324 329 328 328 335 335 336 327 300 239 307 296 248 263 265 264 247 260 301 91 302 260 243 272 278 287 294 295 316 324 312 310 312 298 302 304 311 133 136 98 114 130 102 254 312 325 146 124 178 172 141 246 241 260 264 256 234 138 340 203 175 179 176 170 172 170 168 166 162
353 349 348 351 351 347 343 334 329 329 330 333 336 338 334 330 333 331 322 328 348 347 339 332 332 337 321 295 224 288 282 241 247 247 212 220 248 266 251 254 239 276 298 282 293 294 287 307 320 312 297 298 306 310 314 332 52 127 136 208 334 125 207 310 283 177 146 194 182 151 267 252 276 356 237 187 160 336 274 178 181 173 164 166 165 162 159 161
353 349 347 349 350 347 340 333 328 323 335 345 348 343 331 328 334 328 318 337 1 0 340 320 324 330 322 302 199 264 250 235 232 162 177 218 240 275 269 247 235 268 291 291 309 307 298 303 307 293 285 293 302 324 3 358 349 30 115 191 248 132 173 304 289 228 187 172 191 206 247 282 274 129 154 157 136 337 328 162 178 175 162 160 160 158 154 158
354 348 345 347 349 346 339 332 321 319 353 358 2 2 338 323 325 334 343 350 349 339 314 299 299 308 301 229 214 235 196 176 130 176 241 281 239 289 280 241 247 271 269 266 269 264 267 260 260 275 275 275 160 98 47 348 306 326 57 141 191 143 151 207 277 261 186 124 184 216 220 272 190 147 153 137 95 335 24 125 201 175 161 159 159 159 156 156
355 348 345 346 347 346 338 329 317 334 16 11 11 15 3 340 317 295 348 347 333 319 308 281 278 315 286 244 310 209 182 168 114 197 228 231 233 266 273 252 259 282 268 253 241 234 241 242 221 297 304 288 175 115 123 221 213 186 146 136 166 112 134 200 220 279 92 80 50 112 72 82 129 135 151 141 102 319 35 43 17 126 152 156 155 158 158 159
358 351 345 343 346 346 334 326 312 334 23 21 15 18 24 15 3 292 339 336 321 308 307 271 251 277 269 286 302 233 200 209 113 227 223 217 239 255 252 239 247 270 264 220 231 221 208 234 324 317 282 254 209 186 191 211 179 162 163 144 146 147 210 210 230 282 111 89 25 31 58 84 115 129 145 143 305 16 30 35 105 120 144 143 136 144 157 162
359 353 345 342 345 344 333 322 301 289 15 24 24 26 25 12 14 10 339 327 313 304 299 285 271 267 273 291 295 199 201 219 208 250 226 214 235 243 235 235 258 279 252 169 208 213 181 177 255 228 236 235 225 216 211 229 177 146 143 136 151 165 190 216 228 235 124 92 355 356 49 55 73 94 112 82 354 20 30 80 121 125 147 144 142 160 187 173
357 355 347 341 343 344 336 313 289 223 354 13 23 25 20 7 6 350 338 327 315 311 296 288 281 275 277 286 282 214 202 224 231 259 235 214 216 217 231 231 244 281 245 215 193 179 159 178 237 229 228 233 233 226 220 223 180 161 151 135 149 178 176 182 175 225 18 72 297 351 57 35 10 45 83 51 14 15 40 127 136 136 147 151 160 176 197 214
355 355 349 342 343 344 334 286 258 226 325 8 26 27 29 24 12 342 334 316 303 303 289 288 284 278 278 274 275 267 214 234 245 245 215 203 209 208 213 207 202 244 250 220 95 76 177 220 244 236 230 235 240 238 229 214 185 172 144 126 156 192 125 30 7 352 7 80 192 81 83 358 332 30 43 285 167 207 215 180 174 161 156 160 169 180 185 197
353 354 350 343 342 340 327 217 234 229 289 12 23 22 22 22 8 344 330 294 290 298 285 277 270 271 275 260 251 236 215 245 242 220 201 196 209 217 206 197 230 264 268 184 167 182 201 238 241 239 239 244 255 255 231 205 188 165 154 135 169 180 148 256 255 22 11 59 156 135 96 325 309 355 319 260 237 214 210 216 201 183 173 167 170 187 182 180
349 351 350 344 341 338 309 216 226 232 255 19 20 24 23 7 4 349 334 295 280 294 282 268 261 264 264 239 226 224 233 267 228 194 196 205 209 211 215 213 230 254 250 210 187 183 213 242 239 232 239 236 250 264 216 147 113 183 167 155 166 180 174 142 146 120 25 19 94 115 73 324 258 237 263 243 225 213 200 204 204 193 186 178 176 184 182 183
347 347 348 343 340 333 293 229 222 240 257 13 13 24 29 6 355 345 336 326 280 284 277 266 258 253 236 201 215 225 241 269 222 183 191 207 207 204 237 244 227 255 282 259 203 191 230 254 248 220 219 222 236 275 201 120 51 313 202 176 169 166 138 112 127 119 63 6 238 140 106 282 239 212 224 223 209 216 203 199 205 198 192 193 195 191 191 193
345 342 344 342 337 331 293 254 242 248 265 331 336 345 8 357 348 339 338 32 313 270 252 239 224 218 203 189 205 204 340 275 210 188 191 199 221 225 258 276 230 258 289 287 237 182 244 269 257 177 105 57 44 3 279 118 96 329 274 166 147 135 125 137 144 134 116 193 218 149 127 253 266 224 214 208 214 224 208 199 210 207 198 198 202 202 203 197
344 338 340 340 334 328 305 273 260 263 286 299 293 297 313 317 331 334 346 39 329 247 198 206 196 202 208 200 199 172 52 211 195 201 204 208 239 211 215 277 314 280 280 1 16 278 303 343 358 40 77 59 32 317 278 96 96 280 242 127 131 139 151 160 148 128 172 152 82 83 128 156 272 253 210 187 204 228 225 217 220 215 208 204 204 209 206 196
344 336 335 337 330 321 312 277 255 262 279 279 283 302 311 306 313 336 89 63 291 209 224 206 190 209 200 190 203 203 180 170 177 226 220 223 235 192 199 241 223 266 275 51 6 271 266 348 335 6 67 67 254 265 281 42 81 221 172 140 149 161 161 159 142 132 163 112 66 252 214 143 260 273 188 169 194 222 226 224 221 217 215 210 208 208 199 191
344 334 331 333 326 312 305 283 258 255 262 272 290 304 316 323 318 25 83 81 173 209 227 179 171 206 197 182 202 213 209 187 193 230 213 211 218 207 237 240 216 267 279 155 215 262 267 262 279 79 108 198 233 258 278 328 352 211 173 158 158 156 149 143 139 136 115 90 207 217 193 167 264 269 122 153 202 220 221 220 217 214 215 215 213 208 194 188
344 335 328 329 325 308 297 289 262 253 259 273 290 299 309 322 20 64 54 352 196 212 176 157 197 196 181 166 225 220 210 208 215 212 204 203 206 215 246 257 234 339 321 319 248 261 276 287 295 232 179 194 211 247 240 207 242 212 154 154 132 121 130 120 95 94 92 303 245 202 188 177 291 258 178 172 208 213 208 208 209 210 213 214 214 208 194 188
344 335 327 326 323 308 301 301 261 255 263 270 294 305 308 335 63 84 149 253 242 210 129 188 240 200 169 163 227 228 191 219 216 184 205 221 186 211 255 307 353 30 356 332 306 286 294 297 284 230 210 182 112 311 301 344 12 47 74 107 90 28 92 90 10 36 139 262 268 195 177 166 272 257 218 217 228 216 201 202 198 197 205 209 210 208 195 188
343 334 326 323 318 305 300 290 239 248 279 287 306 315 354 42 41 151 226 296 303 199 189 214 224 219 187 176 206 225 192 220 210 173 189 203 158 202 213 192 165 42 335 283 292 312 306 268 234 213 216 172 93 8 334 351 12 38 54 67 61 5 24 63 275 259 203 252 274 161 143 152 257 246 228 223 231 225 201 204 201 193 197 203 207 207 197 188
341 332 325 320 315 304 289 251 224 224 275 296 304 350 77 74 269 234 252 299 263 208 204 206 205 203 182 178 217 221 190 214 215 192 179 146 174 233 229 210 177 126 243 231 287 350 338 308 334 73 256 176 107 102 339 332 356 21 77 118 96 94 67 304 262 278 250 268 302 131 140 198 280 266 245 230 231 224 210 208 206 200 198 200 203 205 199 189
341 333 324 320 322 311 280 233 218 216 243 272 297 58 76 115 242 251 271 260 254 255 249 215 209 209 193 191 215 193 177 235 208 178 164 121 175 254 278 254 202 166 186 131 46 45 26 343 14 50 250 198 132 168 168 162 262 270 180 149 141 156 145 207 218 209 235 253 337 44 144 209 220 249 272 312 274 215 208 212 211 207 203 200 200 201 197 191
340 331 321 315 325 328 285 221 214 207 220 242 67 70 123 216 251 256 263 265 288 315 322 324 239 209 283 267 228 179 146 224 199 150 161 141 150 255 316 313 207 170 128 82 297 66 73 293 282 312 231 157 172 227 165 108 34 274 121 99 153 191 161 185 202 182 168 146 24 237 229 227 195 252 321 41 49 54 137 207 206 205 203 199 200 199 193 191
338 332 325 314 290 358 41 198 193 186 200 151 75 86 201 220 229 223 257 299 315 313 340 354 8 37 317 295 264 266 89 125 185 101 109 158 152 252 353 350 309 136 123 120 219 329 61 291 287 349 8 141 256 253 155 86 173 273 13 121 229 191 145 173 247 206 117 122 252 205 217 295 333 328 344 39 50 37 36 167 198 199 196 194 201 202 193 189
341 343 345 333 264 110 82 145 159 164 168 97 91 215 227 241 233 244 299 310 308 304 356 27 331 15 339 318 319 320 84 55 26 77 51 317 306 292 58 340 355 81 185 144 106 190 113 306 304 30 25 336 5 31 46 42 58 79 317 273 259 31 102 125 255 343 65 170 256 209 185 247 40 251 321 18 37 23 18 21 187 190 187 190 202 204 196 190
342 345 353 3 104 118 106 134 149 146 108 79 93 244 231 248 261 278 282 291 302 300 314 124 256 44 38 343 327 312 148 107 83 111 99 354 285 255 186 281 12 10 342 98 75 9 95 35 299 24 33 339 18 40 25 10 41 90 138 315 12 20 327 21 134 218 8 242 280 326 302 226 178 267 333 360 10 11 6 8 47 173 184 190 200 205 195 186
339 337 348 42 91 109 118 147 157 132 77 69 206 255 249 256 275 280 283 294 298 284 278 222 214 14 11 330 300 300 294 154 169 139 128 165 218 238 108 70 6 13 39 75 96 257 72 85 276 330 356 337 20 40 7 335 1 50 48 16 21 175 242 276 168 161 176 232 259 321 341 309 256 300 352 356 350 5 0 346 350 277 204 191 196 200 193 183
337 335 340 124 111 120 138 152 146 113 90 162 205 246 284 286 284 287 294 299 279 239 238 219 156 348 309 312 304 267 267 244 182 134 106 177 141 337 359 66 46 36 56 67 77 75 59 68 283 307 342 8 18 32 18 318 349 32 42 22 343 328 314 304 336 51 131 202 272 239 263 278 268 286 18 10 353 359 357 345 328 312 272 210 202 200 193 186
346 344 320 190 162 160 157 151 160 145 141 231 223 238 278 278 278 288 297 298 281 213 192 204 174 201 229 267 302 273 314 342 95 102 78 196 142 120 273 116 114 98 65 54 54 66 66 92 67 323 350 7 283 255 217 153 122 103 88 59 306 328 48 44 340 328 77 96 285 250 239 272 276 341 53 22 341 352 9 7 344 331 313 265 229 211 205 200
354 343 184 167 172 188 181 152 221 217 170 239 241 241 265 270 274 284 293 298 294 256 216 198 178 209 212 212 261 296 14 7 38 73 152 188 156 161 196 154 119 113 105 77 58 125 122 102 83 341 292 262 268 289 72 108 113 96 78 32 264 94 95 107 234 291 1 8 304 298 73 281 276 302 80 70 16 25 26 23 12 359 344 307 275 235 226 225
343 322 205 172 186 199 201 254 290 268 230 253 254 255 263 264 271 282 287 292 290 274 270 265 203 224 230 209 213 343 19 21 33 162 163 171 183 186 174 142 110 105 108 103 307 358 57 73 58 328 298 301 307 335 51 84 91 73 32 346 7 3 178 158 173 208 69 6 348 60 29 287 277 307 5 72 62 50 41 35 25 12 359 333 304 268 251 253
335 314 248 195 204 207 212 264 258 268 285 275 273 275 276 271 263 272 284 286 277 252 101 277 237 208 240 238 188 197 173 132 233 244 161 161 187 185 164 136 120 112 118 156 172 131 83 92 77 40 349 340 345 349 357 12 43 69 295 300 344 323 308 317 108 65 55 330 106 107 244 265 269 324 357 42 55 48 41 35 25 11 4 357 338 312 305 296
340 316 287 314 246 213 217 224 221 257 296 296 293 288 288 286 276 276 283 284 274 253 174 265 284 269 253 268 38 237 187 135 177 306 318 43 172 193 160 121 117 113 133 155 150 135 128 132 115 105 75 337 327 311 295 301 338 1 297 308 344 350 336 324 91 76 95 256 103 122 199 268 291 309 334 17 36 35 30 27 21 9 3 360 355 348 340 334
354 315 315 341 332 229 231 250 277 305 307 314 306 286 275 273 285 290 290 288 278 255 210 235 318 26 327 338 20 333 333 58 72 19 13 7 346 36 86 98 114 126 140 151 139 113 94 81 108 134 155 182 202 226 233 194 334 319 320 330 330 321 329 30 84 90 173 183 58 177 197 254 293 292 321 15 33 36 25 23 21 14 10 5 3 2 357 354
348 314 355 347 333 333 320 322 344 347 316 313 305 280 283 272 286 298 292 292 288 261 189 241 5 46 311 324 26 325 320 17 39 98 73 42 319 36 104 121 143 148 145 153 143 109 78 68 128 146 180 204 199 213 221 168 172 250 283 313 300 291 320 34 90 228 173 113 310 238 194 198 262 293 7 27 30 33 24 25 28 28 25 21 20 21 19 24
308 323 354 359 313 343 5 335 330 324 311 312 297 269 283 275 268 282 288 302 307 299 95 340 299 281 247 210 165 239 318 6 356 341 87 80 339 352 104 131 157 154 149 159 161 131 96 145 188 169 216 231 205 207 212 183 198 239 240 262 275 282 298 304 232 244 163 132 232 231 196 206 252 353 35 26 25 36 41 39 43 49 45 39 37 38 36 30
357 322 325 341 327 302 306 305 308 309 305 311 294 262 282 280 269 269 274 308 312 290 179 205 261 268 259 227 165 169 208 273 310 345 204 216 30 40 29 1 44 157 147 122 116 101 86 167 211 177 186 269 231 215 206 191 220 267 251 249 252 257 271 259 249 259 128 140 211 194 185 220 277 35 54 40 43 54 57 49 47 50 52 51 47 45 51 51
15 351 324 333 325 299 303 310 315 315 306 307 285 262 286 295 296 301 287 256 281 295 257 219 227 245 258 240 153 181 204 186 174 175 161 64 31 43 100 185 277 306 42 65 39 40 81 191 216 146 81 306 264 212 200 196 215 253 271 274 261 255 286 324 309 328 89 94 317 130 171 242 311 63 74 55 53 58 55 47 44 40 43 55 58 52 50 57
262 278 312 328 316 295 313 323 323 325 304 280 261 286 303 308 328 334 307 269 248 221 240 256 238 244 290 263 227 237 188 155 157 158 127 109 115 136 141 187 164 37 2 46 103 72 98 144 242 89 82 287 257 209 214 214 209 264 288 298 293 268 174 87 288 267 118 43 337 87 185 249 282 84 79 59 54 61 59 50 51 49 46 57 67 67 58 54
272 258 256 280 289 287 320 330 319 307 282 281 315 324 320 321 338 348 330 301 298 286 2 332 280 245 313 258 241 240 155 138 135 125 107 107 151 157 140 151 134 131 154 124 115 148 126 128 154 111 109 276 258 210 212 188 49 310 268 244 248 179 145 146 243 280 111 112 125 177 215 234 268 40 80 66 57 69 73 70 76 77 76 77 74 71 71 69